Location: Unspecified
(0.0000°N, 0.0000°E)
Time: 16:19:36
(UTC+00:00)

HuskySat-1 - Pass Details

Date: 25 October 2021
Orbit: 443 x 456 km, 51.6° (Epoch: 29 November)

Event Time Altitude Azimuth Distance (km) Brightness Sun altitude
Rises 18:44:24 0° 294° (WNW) 2,458 ? -14.7°
Reaches altitude 10° 18:47:17 10° 269° (W) 1,591 ? -15.4°
Maximum altitude 18:49:20 15° 234° (SW) 1,337 ? -15.9°
Drops below altitude 10° 18:51:25 10° 198° (SSW) 1,598 ? -16.4°
Sets 18:54:19 0° 173° (S) 2,476 ? -17.1°
